О сайте АЭРОКЛУБЫ И АЭРОДРОМЫ:

Добрый день Уважаемые посетители сайта!
Этот ресурс создан с целью предоставить любителям малой авиации максимум полезной информации и возможностей по обмену различными сведениями об аэродромах и интересных маршрутах. Для этого на сайте есть странички Аэродромы - информация из баз АОПА (в том виде как она предоставляется к свободному использованию) и Каталог аэродромов и аэроклубов , с различными вариантами поиска и сортировки, возможностью найти трансфер, арендовать авто или забронировать номер в гостинице on-line, а так же возможностями :
- для аэроклубов - добавить какую либо дополнительную информацию в страничку , посвященную аэроклубу
(чтобы добавить информацию необходимо зарегистрироваться, и подтвердить свою принадлежность к какому либо аэроклубу)
- для посетителей - поделиться каким либо интересным маршрутом, нарисовать его на карте, описать достопримечательности, загрузить фотографии и поставить в соответствие с каким либо клубом или аэродромом.
(чтобы добавить информацию необходимо зарегистрироваться)

Аэроклубы / Аэродромы в Москве

Карта аэродромов в Москве по коду ИКАО

Список аэродромов Москвы

Javascript is required to view this map.

Авиационная погода в Москва - Домодедово

Регион: 
Погода METAR: 
UUDD 221400Z 21004MPS 3300 BR OVC003 M01/M03 Q1010 R88/520242 TEMPO 1000 BR
Время наблюдения
2021-01-22T14:00:00Z
Температура C
-1.0
Точка росы
-3.0
Направление ветра
210
Скорость ветра (узлы)
8
Метео видимость
2.05
Явления погоды
BR
Условия полета
LIFR
Аэропорт подробнее: 

Авиационная погода в Москва - Шереметьево

Регион: 
Погода METAR: 
UUEE 221400Z 17003MPS 3000 BR OVC004 M02/M02 Q1008 R24L/490335 R24C/490330 NOSIG
Время наблюдения
2021-01-22T14:00:00Z
Температура C
-2.0
Точка росы
-2.0
Направление ветра
170
Скорость ветра (узлы)
6
Метео видимость
1.86
Явления погоды
BR
Условия полета
LIFR
Аэропорт подробнее: 

Авиационная погода в Москва - Внуково

Регион: 
Погода METAR: 
UUWW 221400Z 18003MPS 2500 BR OVC002 M02/M02 Q1009 R24/510242 NOSIG
Время наблюдения
2021-01-22T14:00:00Z
Температура C
-2.0
Точка росы
-2.0
Направление ветра
180
Скорость ветра (узлы)
6
Метео видимость
1.55
Явления погоды
BR
Условия полета
LIFR
Аэропорт подробнее: 

Аэроклубы и аэродромы по регионам Юга России